カタログに戻る

FENGYUN 1C DEB

運用中SSO
NORAD 37447·DEBRIS·🇨🇳 China

打ち上げ May 10, 1999 から Taiyuan Satellite Launch Center

Loading…

次のパス (今後24時間)

TLE

最新Source: Space-Track

元期: Sep 12, 2026, 09:23 UTC

1 37447U 99025EHR 26255.39165359  .00000810  00000-0  40686-3 0  9997
2 37447  98.7636 317.2142 0039680 164.4991 195.7409 14.18893706673408

AllMySatでFENGYUN 1C DEBをリアルタイム追跡

Download on the App Store